Location: Asheville, NC
(35.6000°N, 82.5500°W)
Time: 16:38:49
(UTC-05:00)

Tiangong 1 - Pass Details

Date: 07 December 2017
Orbit: 263 x 288 km, 42.8° (Epoch: 18 January)

Event Time Altitude Azimuth Distance (km) Brightness Sun altitude
Rises 18:54:46 0° 281° (WNW) 2,018 5.8 -19.4°
Reaches altitude 10° 18:57:15 10° 257° (WSW) 1,178 4.8 -19.9°
Maximum altitude 18:58:53 15° 218° (SW) 931 3.7 -20.2°
Enters shadow 19:00:12 11° 185° (S) 1,083 3.5 -20.4°
